Current Weather Conditions: station 62297

sailwx.info

Last reported at 2018-Feb-25 07:45 UTC.
Time now 2018-Feb-25 18:05 UTC

Location: N 58°48' E 001°30'.
View on Google Maps.

See reports from other nearby stations

  
Tides and Currents Weather Stations Pressure Air Temp Water Temp Dewpoint Dewpoint Depression Visibility Wind Speed Wind Dir Waves Ship Positions
date/time (UTC)wind fromknots sea level pressurealtimeterstation pressurevisibilityair tempwater tempwave heightnotes
2018-Feb-25 17:00 160 27.0 3.5
2018-Feb-25 16:00 160 27.0 3.4
2018-Feb-25 15:00 130 10.8 2.9
2018-Feb-25 14:00 160 27.0 3.6
2018-Feb-25 13:00 160 27.0 3.5
2018-Feb-25 12:00 150 10.8 3.6
2018-Feb-25 11:00 150 27.0 3.8
2018-Feb-25 10:00 150 27.0 3.9
2018-Feb-25 09:00 180 10.8 3.4
2018-Feb-25 08:00 170 2.2 3.4
2018-Feb-25 07:00 160 10.8 3.7
2018-Feb-25 06:00 160 10.8 3.4
2018-Feb-25 05:00 160 10.8 3.8
2018-Feb-25 04:00 160 10.8 3.4
2018-Feb-25 03:00 160 10.8 3.6
2018-Feb-25 02:00 160 10.8 3.3
2018-Feb-25 01:00 160 10.8 3.4
2018-Feb-25 00:00 160 10.8 3.4
2018-Feb-24 23:00 160 10.8 3.6
2018-Feb-24 22:00 160 10.8 3.9
2018-Feb-24 21:00 160 10.8 4.0
2018-Feb-24 20:00 150 5.4 2.6
2018-Feb-24 19:00 160 10.8 3.5
2018-Feb-24 18:00 160 10.8 4.2
2018-Feb-24 17:00 160 10.8 4.4
2018-Feb-24 16:00 170 10.8 4.6
2018-Feb-24 15:00 170 10.8 4.7
2018-Feb-24 14:00 170 10.8 4.8
2018-Feb-24 13:00 170 10.8 4.8
2018-Feb-24 12:00 180 10.8 4.9
2018-Feb-24 11:00 170 10.8 4.7
2018-Feb-24 10:00 170 10.8 4.6
2018-Feb-24 09:00 160 10.8 4.8
2018-Feb-24 08:00 160 10.8 4.6
2018-Feb-24 07:00 160 10.8 4.4
2018-Feb-24 06:00 160 10.8 4.2
2018-Feb-24 05:00 160 10.8 4.2
2018-Feb-24 04:00 160 10.8 4.5
2018-Feb-24 03:00 170 10.8 4.6
2018-Feb-24 02:00 170 10.8 4.8
2018-Feb-24 01:00
2018-Feb-24 00:00
2018-Feb-23 23:00 190 10.8 4.6
2018-Feb-23 22:00 170 10.8 5.1
2018-Feb-23 21:00 180 10.8 5.1
2018-Feb-23 20:00 180 10.8 5.2
2018-Feb-23 19:00 180 10.8 5.3
2018-Feb-23 18:00 180 10.8 5.3